379 Hamamatsu-Yuto. Observer S. Wakuda. 0.25-m f/5.0 Schmidt-Cassegrain
+ CCD.
458 Guadarrama Observatory. Observer D. Rodriguez. 0.20-m f/4 reflector
+ CCD.
644 Palomar Mountain/NEAT. Observers E. F. Helin, S. Pravdo, K. Lawrence,
M. Hicks, R. Thicksten. 1.2-m Schmidt + CCD.
670 Camarillo. Observer J. E. Rogers. 0.30-m f/6.7 Helin Telescope + CCD.
673 Table Mountain Observatory, Wrightwood. Observer J. Young.
0.61-m f/16 reflector + CCD.
704 Lincoln Laboratory ETS, New Mexico. Observers M. Blythe, F. Shelly,
M. Bezpalko, R. Huber, L. Manguso, S. Adams, D. Torres, T. Brothers,
S. Partridge. Measurers J. Stuart, R. Sayer, J. B. Evans, H. Viggh. 1.0-m
f/2.15 reflector + CCD.
750 Hobbs Observatory, Fall Creek. Observer R. Elliott. 0.3-m f/3.3 reflector
+ CCD.
850 Cordell-Lorenz Observatory, Sewanee. Observers D. T. Durig,
M. M. Kimbrell. 0.3-m f/5.75 Schmidt-Cassegrain + CCD.
921 SW Institute for Space Research, Cloudcroft. Observer A. Hale. 0.30-m
Schmidt-Cassegrain + CCD.
A46 Lelekovice. Observer K. Hornoch. 0.35-m f/4.7 reflector + CCD.
H43 Conway. Observers P. C. Sherrod, B. M. Sherrod. 0.31-m f/3.75
Schmidt-Cassegrain + CCD. Long. = 267.4835, rho cos phi' = 0.81918,
rho sin phi' = +0.57163.
J87 La Canada. Observer J. Lacruz. 0.30-m f/3.3 Schmidt-Cassegrain + CCD.
J95 Great Shefford. Observer P. Birtwhistle. 0.3-m Schmidt-Cassegrain + CCD.
Orbital elements:
C/2002 V1 (NEAT)
T 2003 Feb. 18.2915 TT MPC
q 0.099306 (2000.0) P Q
Peri. 152.1534 -0.4463714 -0.0906803
Node 64.0849 -0.8868442 -0.0879317
e 1.0 Incl. 81.7976 +0.1194153 -0.9919905
From 191 observations 2002 Nov. 6-17.
Ephemeris:
C/2002 V1 (NEAT)
Date TT R. A. (2000) Decl. Delta r Elong. Phase m1 m2
2002 11 12 04 54.67 +16 28.7 1.314 2.248 154.4 11.0 15.6
2002 11 17 04 41.87 +16 35.5 1.205 2.168 162.3 8.0 15.3
2002 11 22 04 26.21 +16 40.8 1.106 2.087 170.6 4.4 14.9
2002 11 27 04 07.40 +16 42.7 1.019 2.004 175.6 2.2 14.6
2002 12 02 03 45.38 +16 38.6 0.944 1.919 167.9 6.2 14.2
2002 12 07 03 20.36 +16 25.7 0.884 1.833 157.3 12.0 13.9
2002 12 12 02 52.99 +16 01.8 0.840 1.744 145.8 18.5 13.5
2002 12 17 02 24.29 +15 26.0 0.811 1.654 134.0 25.4 13.2
2002 12 22 01 55.51 +14 39.7 0.798 1.561 122.0 32.3 12.9
2002 12 27 01 27.78 +13 46.4 0.797 1.465 110.3 39.0 12.7
2003 01 01 01 01.97 +12 50.2 0.807 1.367 99.1 45.3 12.4
Brian G. Marsden (C) Copyright 2002 MPC M.P.E.C. 2002-W14
Read MPEC 2002-W13
Read MPEC 2002-W15
Enter an MPEC number in one of the following forms: